Location: B�di�
(14.6834°N, 3.1047°W)
Time: 18:05:27
(UTC+00:00)

Cosmos 2251 Rocket - Pass Details

Date: 24 January 2020
Orbit: 764 x 792 km, 74.0° (Epoch: 23 February)

Event Time Altitude Azimuth Distance (km) Brightness Sun altitude
Rises 19:32:41 0° 349° (N) 3,258 6.7 -20.6°
Reaches altitude 10° 19:35:04 10° 350° (N) 2,334 5.9 -21.1°
Maximum altitude 19:40:23 78° 77° (ENE) 805 3.4 -22.4°
Drops below altitude 10° 19:45:43 10° 163° (SSE) 2,346 6.0 -23.6°
Sets 19:48:06 0° 165° (SSE) 3,276 6.8 -24.2°
